Hourly Weather Prudnik

Today, 5 July, Sunday

Time Temperature Precipitation Wind Pressure Humidity
00:00 +17°C° 0 mm 2 mps 739 mmHg 78%
01:00 +17°C° 0 mm 2 mps 739 mmHg 79%
02:00 +17°C° 0 mm 2 mps 739 mmHg 80%
03:00 +17°C° 0 mm 2 mps 739 mmHg 81%
04:00 +16°C° 0 mm 2 mps 738 mmHg 83%
05:00 +18°C° 0 mm 2 mps 738 mmHg 79%
06:00 +19°C° 0 mm 2 mps 739 mmHg 75%
07:00 +21°C° 0 mm 2 mps 739 mmHg 71%
08:00 +23°C° 0 mm 2 mps 739 mmHg 68%
09:00 +24°C° 0 mm 2 mps 739 mmHg 65%
10:00 +26°C° 0 mm 3 mps 739 mmHg 62%
11:00 +26°C° 0.1 mm 3 mps 739 mmHg 62%
12:00 +27°C° 0.1 mm 3 mps 738 mmHg 62%
13:00 +28°C° 0.1 mm 4 mps 738 mmHg 62%
14:00 +28°C° 0.2 mm 4 mps 738 mmHg 64%
15:00 +27°C° 0.2 mm 4 mps 737 mmHg 66%
16:00 +27°C° 0.2 mm 4 mps 737 mmHg 67%
17:00 +26°C° 0.2 mm 3 mps 737 mmHg 72%
18:00 +25°C° 0.2 mm 3 mps 737 mmHg 77%
19:00 +24°C° 0.2 mm 3 mps 737 mmHg 81%
20:00 +22°C° 0 mm 3 mps 737 mmHg 84%
21:00 +21°C° 0 mm 2 mps 737 mmHg 86%
22:00 +20°C° 0 mm 2 mps 737 mmHg 89%
23:00 +19°C° 0 mm 2 mps 737 mmHg 88%

Tomorrow, 6 July, Monday

Time Temperature Precipitation Wind Pressure Humidity
00:00 +19°C° 0 mm 2 mps 737 mmHg 88%
01:00 +19°C° 0 mm 3 mps 737 mmHg 88%
02:00 +18°C° 0 mm 3 mps 736 mmHg 88%
03:00 +18°C° 0 mm 3 mps 736 mmHg 89%
04:00 +18°C° 0 mm 3 mps 736 mmHg 89%
05:00 +19°C° 0 mm 3 mps 736 mmHg 85%
06:00 +20°C° 0 mm 3 mps 736 mmHg 82%
07:00 +21°C° 0 mm 4 mps 736 mmHg 78%
08:00 +22°C° 0 mm 3 mps 736 mmHg 74%
09:00 +24°C° 0 mm 3 mps 736 mmHg 69%
10:00 +25°C° 0 mm 3 mps 736 mmHg 65%
11:00 +25°C° 0.2 mm 3 mps 736 mmHg 65%
12:00 +25°C° 0.2 mm 4 mps 735 mmHg 66%
13:00 +25°C° 0.2 mm 4 mps 735 mmHg 66%
14:00 +25°C° 0.3 mm 4 mps 735 mmHg 67%
15:00 +23°C° 0.3 mm 4 mps 735 mmHg 68%
16:00 +22°C° 0.3 mm 4 mps 735 mmHg 69%
17:00 +21°C° 0 mm 4 mps 735 mmHg 73%
18:00 +20°C° 0 mm 3 mps 735 mmHg 77%
19:00 +18°C° 0 mm 3 mps 735 mmHg 80%
20:00 +17°C° 0.2 mm 3 mps 736 mmHg 80%
21:00 +16°C° 0.2 mm 3 mps 737 mmHg 79%
22:00 +16°C° 0.2 mm 3 mps 737 mmHg 78%
23:00 +14°C° 0.2 mm 3 mps 738 mmHg 80%

Day after tomorrow, 7 July, Tuesday

Time Temperature Precipitation Wind Pressure Humidity
00:00 +13°C° 0.2 mm 3 mps 738 mmHg 82%
01:00 +14°C° 0.2 mm 2 mps 738 mmHg 84%
02:00 +13°C° 0 mm 2 mps 738 mmHg 83%
03:00 +13°C° 0 mm 2 mps 738 mmHg 83%
04:00 +13°C° 0 mm 2 mps 739 mmHg 83%
05:00 +12°C° 0 mm 3 mps 739 mmHg 82%
06:00 +13°C° 0 mm 4 mps 739 mmHg 82%
07:00 +13°C° 0 mm 5 mps 739 mmHg 81%
08:00 +14°C° 0.1 mm 5 mps 740 mmHg 78%
09:00 +15°C° 0.1 mm 5 mps 740 mmHg 75%
10:00 +15°C° 0.1 mm 5 mps 740 mmHg 72%
11:00 +16°C° 0.1 mm 5 mps 740 mmHg 69%
12:00 +16°C° 0.1 mm 5 mps 740 mmHg 66%
13:00 +17°C° 0.1 mm 5 mps 740 mmHg 62%
14:00 +17°C° 0 mm 5 mps 740 mmHg 63%
15:00 +17°C° 0 mm 5 mps 740 mmHg 64%
16:00 +18°C° 0 mm 4 mps 740 mmHg 64%
17:00 +17°C° 0 mm 3 mps 740 mmHg 69%
18:00 +16°C° 0 mm 3 mps 740 mmHg 74%
19:00 +15°C° 0 mm 2 mps 740 mmHg 78%
20:00 +14°C° 0 mm 2 mps 740 mmHg 80%
21:00 +13°C° 0 mm 1 mps 740 mmHg 82%
22:00 +12°C° 0 mm 1 mps 740 mmHg 84%
23:00 +11°C° 0 mm 1 mps 740 mmHg 85%

8 July, Wednesday

Time Temperature Precipitation Wind Pressure Humidity
00:00 +11°C° 0 mm 1 mps 740 mmHg 85%
01:00 +11°C° 0 mm 1 mps 740 mmHg 85%
02:00 +11°C° 0 mm 1 mps 740 mmHg 85%
03:00 +11°C° 0 mm 1 mps 740 mmHg 85%
04:00 +11°C° 0 mm 1 mps 740 mmHg 85%
05:00 +12°C° 0 mm 1 mps 740 mmHg 79%
06:00 +14°C° 0 mm 1 mps 740 mmHg 74%
07:00 +16°C° 0 mm 1 mps 740 mmHg 68%
08:00 +19°C° 0 mm 1 mps 740 mmHg 63%
09:00 +20°C° 0 mm 1 mps 740 mmHg 59%
10:00 +21°C° 0 mm 1 mps 740 mmHg 54%
11:00 +21°C° 0 mm 2 mps 740 mmHg 55%
12:00 +21°C° 0 mm 2 mps 740 mmHg 56%
13:00 +21°C° 0 mm 2 mps 740 mmHg 57%
14:00 +20°C° 0.1 mm 2 mps 739 mmHg 63%
15:00 +19°C° 0.1 mm 2 mps 739 mmHg 69%
16:00 +19°C° 0.1 mm 2 mps 739 mmHg 76%
17:00 +18°C° 0 mm 2 mps 739 mmHg 79%
18:00 +18°C° 0 mm 1 mps 739 mmHg 83%
19:00 +16°C° 0 mm 1 mps 739 mmHg 86%
20:00 +15°C° 0.2 mm 1 mps 740 mmHg 88%
21:00 +15°C° 0.2 mm 1 mps 740 mmHg 90%
22:00 +14°C° 0.2 mm 1 mps 740 mmHg 92%
23:00 +14°C° 0 mm 1 mps 740 mmHg 92%

9 July, Thursday

Time Temperature Precipitation Wind Pressure Humidity
00:00 +14°C° 0 mm 1 mps 740 mmHg 92%
01:00 +13°C° 0 mm 1 mps 741 mmHg 92%
02:00 +13°C° 0 mm 1 mps 740 mmHg 93%
03:00 +12°C° 0 mm 1 mps 740 mmHg 93%
04:00 +12°C° 0 mm 1 mps 740 mmHg 93%
05:00 +13°C° 0 mm 0 mps 741 mmHg 89%
06:00 +14°C° 0 mm 0 mps 741 mmHg 85%
07:00 +16°C° 0 mm 0 mps 741 mmHg 81%
08:00 +18°C° 0 mm 0 mps 741 mmHg 74%
09:00 +19°C° 0 mm 0 mps 741 mmHg 68%
10:00 +23°C° 0 mm 1 mps 741 mmHg 61%
11:00 +23°C° 0.1 mm 1 mps 741 mmHg 61%
12:00 +24°C° 0.1 mm 1 mps 741 mmHg 60%
13:00 +24°C° 0.1 mm 1 mps 741 mmHg 59%
14:00 +24°C° 0.1 mm 1 mps 740 mmHg 59%
15:00 +25°C° 0.1 mm 1 mps 740 mmHg 58%
16:00 +25°C° 0.1 mm 1 mps 740 mmHg 58%
17:00 +24°C° 0.1 mm 1 mps 740 mmHg 64%
18:00 +23°C° 0.1 mm 1 mps 739 mmHg 69%
19:00 +21°C° 0.1 mm 1 mps 739 mmHg 75%
20:00 +20°C° 0 mm 1 mps 739 mmHg 78%
21:00 +19°C° 0 mm 1 mps 739 mmHg 81%
22:00 +18°C° 0 mm 1 mps 739 mmHg 83%
23:00 +18°C° 0 mm 1 mps 739 mmHg 83%

10 July, Friday

Time Temperature Precipitation Wind Pressure Humidity
00:00 +18°C° 0 mm 1 mps 739 mmHg 82%
01:00 +18°C° 0 mm 1 mps 739 mmHg 81%
02:00 +18°C° 0 mm 1 mps 738 mmHg 82%
03:00 +18°C° 0 mm 1 mps 738 mmHg 82%
04:00 +18°C° 0 mm 1 mps 738 mmHg 83%
05:00 +18°C° 0 mm 2 mps 738 mmHg 80%
06:00 +20°C° 0 mm 2 mps 738 mmHg 78%
07:00 +21°C° 0 mm 2 mps 738 mmHg 76%
08:00 +22°C° 0 mm 3 mps 737 mmHg 71%
09:00 +25°C° 0 mm 3 mps 737 mmHg 66%
10:00 +26°C° 0 mm 3 mps 737 mmHg 62%
11:00 +27°C° 0 mm 3 mps 737 mmHg 60%
12:00 +28°C° 0 mm 4 mps 737 mmHg 58%
13:00 +28°C° 0 mm 4 mps 736 mmHg 56%
14:00 +28°C° 0.3 mm 4 mps 736 mmHg 59%
15:00 +28°C° 0.3 mm 4 mps 736 mmHg 63%
16:00 +27°C° 0.3 mm 4 mps 736 mmHg 66%
17:00 +26°C° 0.4 mm 4 mps 736 mmHg 71%
18:00 +25°C° 0.4 mm 3 mps 735 mmHg 75%
19:00 +24°C° 0.4 mm 3 mps 735 mmHg 80%
20:00 +22°C° 0.1 mm 3 mps 736 mmHg 81%
21:00 +21°C° 0.1 mm 3 mps 736 mmHg 82%
22:00 +20°C° 0.1 mm 3 mps 736 mmHg 84%
23:00 +19°C° 0.1 mm 3 mps 737 mmHg 85%
Show more